Time,TemperatureF,DewpointF,PressureIn,WindDirection,WindDirectionDegrees,WindSpeedMPH,WindSpeedGustMPH,Humidity,HourlyPrecipIn,Conditions,Clouds,dailyrainin,SolarRadiationWatts/m^2,SoftwareType,DateUTC
2013-05-01 00:01:00,56.8,54.5,30.10,SSE,153,0.0,0.0,92,0.00,,,0.00,0.0,meteohub,2013-05-01 04:01:00,
2013-05-01 00:02:00,56.8,54.5,30.10,SSE,153,0.0,0.0,92,0.00,,,0.00,0.0,meteohub,2013-05-01 04:02:00,
2013-05-01 00:03:00,56.8,54.9,30.10,SSE,153,0.0,0.0,93,0.00,,,0.00,0.0,meteohub,2013-05-01 04:03:00,
2013-05-01 00:08:00,56.8,54.9,30.10,SSE,153,0.0,0.0,93,0.00,,,0.00,0.0,meteohub,2013-05-01 04:08:00,
2013-05-01 00:13:00,56.7,54.7,30.10,SSE,153,1.0,0.0,93,0.00,,,0.00,0.0,meteohub,2013-05-01 04:13:00,
2013-05-01 00:19:00,56.7,54.7,30.10,SSE,153,0.0,1.0,93,0.00,,,0.00,0.0,meteohub,2013-05-01 04:19:00,
2013-05-01 00:24:00,56.7,55.0,30.10,SSE,153,0.0,1.0,94,0.00,,,0.00,0.0,meteohub,2013-05-01 04:24:00,
2013-05-01 00:29:00,56.7,55.0,30.10,SSE,153,0.0,1.0,94,0.00,,,0.00,0.0,meteohub,2013-05-01 04:29:00,
2013-05-01 00:34:00,56.7,55.0,30.10,SSE,153,0.0,2.0,94,0.00,,,0.00,0.0,meteohub,2013-05-01 04:34:00,
2013-05-01 00:39:00,56.7,55.0,30.10,SSE,153,0.0,2.0,94,0.00,,,0.00,0.0,meteohub,2013-05-01 04:39:00,
2013-05-01 00:44:00,56.7,55.0,30.11,SSE,153,0.0,2.0,94,0.00,,,0.00,0.0,meteohub,2013-05-01 04:44:00,
2013-05-01 00:49:00,56.5,54.9,30.11,SSW,195,2.0,3.0,94,0.00,,,0.00,0.0,meteohub,2013-05-01 04:49:00,
2013-05-01 00:54:00,56.5,54.9,30.11,SSW,195,1.0,3.0,94,0.00,,,0.00,0.0,meteohub,2013-05-01 04:54:00,
2013-05-01 00:59:00,56.3,54.7,30.11,SE,132,0.0,3.0,94,0.00,,,0.00,0.0,meteohub,2013-05-01 04:59:00,
2013-05-01 01:04:00,56.1,54.5,30.11,SE,132,0.0,3.0,94,0.00,,,0.00,0.0,meteohub,2013-05-01 05:04:00,
2013-05-01 01:09:00,56.1,54.5,30.11,SE,132,0.0,3.0,94,0.00,,,0.00,0.0,meteohub,2013-05-01 05:09:00,
2013-05-01 01:15:00,55.9,54.3,30.11,SSE,151,1.0,3.0,94,0.00,,,0.00,0.0,meteohub,2013-05-01 05:15:00,
2013-05-01 01:20:00,55.9,54.0,30.11,SSE,151,0.0,3.0,93,0.00,,,0.00,0.0,meteohub,2013-05-01 05:20:00,
2013-05-01 01:25:00,55.9,54.0,30.11,SSE,151,0.0,3.0,93,0.00,,,0.00,0.0,meteohub,2013-05-01 05:25:00,
2013-05-01 01:30:00,55.8,53.8,30.11,SSE,151,0.0,2.0,93,0.00,,,0.00,0.0,meteohub,2013-05-01 05:30:00,
2013-05-01 01:35:00,55.8,53.8,30.10,SSE,151,0.0,2.0,93,0.00,,,0.00,0.0,meteohub,2013-05-01 05:35:00,
2013-05-01 01:40:00,55.6,53.6,30.10,SSE,151,0.0,1.0,93,0.00,,,0.00,0.0,meteohub,2013-05-01 05:40:00,
2013-05-01 01:45:00,55.6,54.0,30.10,SSE,151,0.0,2.0,94,0.00,,,0.00,0.0,meteohub,2013-05-01 05:45:00,
2013-05-01 01:50:00,55.6,54.0,30.10,SSE,151,1.0,2.0,94,0.00,,,0.00,0.0,meteohub,2013-05-01 05:50:00,
2013-05-01 01:55:00,55.6,54.0,30.10,SSE,151,1.0,3.0,94,0.00,,,0.00,0.0,meteohub,2013-05-01 05:55:00,
2013-05-01 02:00:00,55.4,53.8,30.11,SSE,151,2.0,3.0,94,0.00,,,0.00,0.0,meteohub,2013-05-01 06:00:00,
2013-05-01 02:06:00,55.4,53.8,30.11,SSE,151,0.0,3.0,94,0.00,,,0.00,0.0,meteohub,2013-05-01 06:06:00,
2013-05-01 02:11:00,55.4,53.8,30.11,SSE,151,0.0,3.0,94,0.00,,,0.00,0.0,meteohub,2013-05-01 06:11:00,
2013-05-01 02:16:00,55.2,53.6,30.11,SSE,151,0.0,2.0,94,0.00,,,0.00,0.0,meteohub,2013-05-01 06:16:00,
2013-05-01 02:21:00,55.2,53.6,30.11,SSE,150,1.0,3.0,94,0.00,,,0.00,0.0,meteohub,2013-05-01 06:21:00,
2013-05-01 02:26:00,55.2,53.6,30.10,SSE,163,2.0,3.0,94,0.00,,,0.00,0.0,meteohub,2013-05-01 06:26:00,
2013-05-01 02:31:00,55.0,53.4,30.10,SSE,163,0.0,3.0,94,0.00,,,0.00,0.0,meteohub,2013-05-01 06:31:00,
2013-05-01 02:36:00,54.9,53.2,30.10,SSE,163,1.0,2.0,94,0.00,,,0.00,0.0,meteohub,2013-05-01 06:36:00,
2013-05-01 02:41:00,54.9,53.2,30.10,SSW,194,0.0,2.0,94,0.00,,,0.00,0.0,meteohub,2013-05-01 06:41:00,
2013-05-01 02:47:00,54.7,52.7,30.10,SSE,149,1.0,5.0,93,0.00,,,0.00,0.0,meteohub,2013-05-01 06:47:00,
2013-05-01 02:52:00,54.3,52.3,30.10,SSE,149,0.0,5.0,93,0.00,,,0.00,0.0,meteohub,2013-05-01 06:52:00,
2013-05-01 02:57:00,54.3,52.3,30.10,SSE,150,0.0,5.0,93,0.00,,,0.00,0.0,meteohub,2013-05-01 06:57:00,
2013-05-01 03:02:00,54.1,52.2,30.10,SSE,150,0.0,3.0,93,0.00,,,0.00,0.0,meteohub,2013-05-01 07:02:00,
2013-05-01 03:07:00,54.1,52.2,30.10,SSE,150,0.0,2.0,93,0.00,,,0.00,0.0,meteohub,2013-05-01 07:07:00,
2013-05-01 03:12:00,54.1,52.2,30.09,SSE,150,2.0,2.0,93,0.00,,,0.00,0.0,meteohub,2013-05-01 07:12:00,
2013-05-01 03:17:00,54.0,52.0,30.09,SSE,150,0.0,2.0,93,0.00,,,0.00,0.0,meteohub,2013-05-01 07:17:00,
2013-05-01 03:22:00,54.0,52.0,30.09,SSE,164,1.0,2.0,93,0.00,,,0.00,0.0,meteohub,2013-05-01 07:22:00,
2013-05-01 03:27:00,54.0,52.0,30.09,SSE,164,0.0,3.0,93,0.00,,,0.00,0.0,meteohub,2013-05-01 07:27:00,
2013-05-01 03:32:00,53.8,51.8,30.09,SSE,164,0.0,3.0,93,0.00,,,0.00,0.0,meteohub,2013-05-01 07:32:00,
2013-05-01 03:37:00,53.8,51.8,30.09,SSE,156,0.0,3.0,93,0.00,,,0.00,0.0,meteohub,2013-05-01 07:37:00,
2013-05-01 03:42:00,53.6,51.6,30.10,SSE,156,0.0,2.0,93,0.00,,,0.00,0.0,meteohub,2013-05-01 07:42:00,
2013-05-01 03:47:00,53.6,51.6,30.09,SSE,156,0.0,2.0,93,0.00,,,0.00,0.0,meteohub,2013-05-01 07:47:00,
2013-05-01 03:52:00,53.6,51.6,30.09,SSE,156,0.0,1.0,93,0.00,,,0.00,0.0,meteohub,2013-05-01 07:52:00,
2013-05-01 03:57:00,53.6,51.6,30.09,SSE,156,0.0,1.0,93,0.00,,,0.00,0.0,meteohub,2013-05-01 07:57:00,
2013-05-01 04:02:00,53.6,51.6,30.09,SSE,156,0.0,1.0,93,0.00,,,0.00,0.0,meteohub,2013-05-01 08:02:00,
2013-05-01 04:07:00,53.6,51.6,30.09,SSE,156,0.0,1.0,93,0.00,,,0.00,0.0,meteohub,2013-05-01 08:07:00,
2013-05-01 04:12:00,53.6,52.0,30.09,SSE,156,0.0,2.0,94,0.00,,,0.00,0.0,meteohub,2013-05-01 08:12:00,
2013-05-01 04:17:00,53.4,51.8,30.09,SSE,167,1.0,2.0,94,0.00,,,0.00,0.0,meteohub,2013-05-01 08:17:00,
2013-05-01 04:22:00,53.4,51.8,30.09,SSE,167,0.0,2.0,94,0.00,,,0.00,0.0,meteohub,2013-05-01 08:22:00,
2013-05-01 04:27:00,53.4,51.8,30.09,SSE,167,0.0,2.0,94,0.00,,,0.00,0.0,meteohub,2013-05-01 08:27:00,
2013-05-01 04:32:00,53.4,51.8,30.09,SSE,167,0.0,1.0,94,0.00,,,0.00,0.0,meteohub,2013-05-01 08:32:00,
2013-05-01 04:37:00,53.4,51.8,30.09,SSE,167,0.0,1.0,94,0.00,,,0.00,0.0,meteohub,2013-05-01 08:37:00,
2013-05-01 04:42:00,53.4,51.8,30.09,SSE,167,0.0,1.0,94,0.00,,,0.00,0.0,meteohub,2013-05-01 08:42:00,
2013-05-01 04:47:00,53.4,51.8,30.09,SSE,167,0.0,1.0,94,0.00,,,0.00,0.0,meteohub,2013-05-01 08:47:00,
2013-05-01 04:52:00,53.2,51.3,30.09,SSE,167,0.0,2.0,93,0.00,,,0.00,0.0,meteohub,2013-05-01 08:52:00,
2013-05-01 04:57:00,53.2,51.3,30.09,SSE,167,0.0,2.0,93,0.00,,,0.00,0.0,meteohub,2013-05-01 08:57:00,
2013-05-01 05:02:00,53.2,51.3,30.09,SSE,167,0.0,2.0,93,0.00,,,0.00,0.0,meteohub,2013-05-01 09:02:00,
2013-05-01 05:07:00,53.2,51.3,30.09,SSE,167,0.0,2.0,93,0.00,,,0.00,0.0,meteohub,2013-05-01 09:07:00,
2013-05-01 05:12:00,53.1,51.1,30.09,SSE,167,0.0,2.0,93,0.00,,,0.00,0.0,meteohub,2013-05-01 09:12:00,
2013-05-01 05:17:00,53.1,51.1,30.09,South,174,0.0,2.0,93,0.00,,,0.00,0.0,meteohub,2013-05-01 09:17:00,
2013-05-01 05:22:00,53.1,51.4,30.09,South,174,0.0,2.0,94,0.00,,,0.00,0.0,meteohub,2013-05-01 09:22:00,
2013-05-01 05:27:00,53.1,51.4,30.09,South,174,1.0,2.0,94,0.00,,,0.00,0.0,meteohub,2013-05-01 09:27:00,
2013-05-01 05:32:00,53.1,51.4,30.09,South,191,0.0,3.0,94,0.00,,,0.00,0.0,meteohub,2013-05-01 09:32:00,
2013-05-01 05:37:00,53.1,51.1,30.09,SSW,192,0.0,3.0,93,0.00,,,0.00,0.0,meteohub,2013-05-01 09:37:00,
2013-05-01 05:42:00,52.9,50.9,30.09,SSW,192,0.0,3.0,93,0.00,,,0.00,0.0,meteohub,2013-05-01 09:42:00,
2013-05-01 05:47:00,52.9,50.9,30.09,SSW,192,0.0,2.0,93,0.00,,,0.00,0.0,meteohub,2013-05-01 09:47:00,
2013-05-01 05:52:00,52.9,50.9,30.09,West,281,0.0,2.0,93,0.00,,,0.00,0.0,meteohub,2013-05-01 09:52:00,
2013-05-01 05:57:00,52.7,50.7,30.09,West,281,1.0,3.0,93,0.00,,,0.00,0.0,meteohub,2013-05-01 09:57:00,
2013-05-01 06:02:00,52.7,50.7,30.09,West,281,0.0,3.0,93,0.00,,,0.00,0.0,meteohub,2013-05-01 10:02:00,
2013-05-01 06:07:00,52.5,50.5,30.10,West,281,0.0,2.0,93,0.00,,,0.00,0.0,meteohub,2013-05-01 10:07:00,
2013-05-01 06:12:00,52.5,50.5,30.10,West,281,0.0,2.0,93,0.00,,,0.00,0.0,meteohub,2013-05-01 10:12:00,
2013-05-01 06:17:00,52.5,50.5,30.10,West,281,0.0,2.0,93,0.00,,,0.00,0.0,meteohub,2013-05-01 10:17:00,
2013-05-01 06:22:00,52.5,50.5,30.10,West,281,0.0,1.0,93,0.00,,,0.00,0.0,meteohub,2013-05-01 10:22:00,
2013-05-01 06:27:00,52.5,50.5,30.10,West,281,0.0,1.0,93,0.00,,,0.00,0.0,meteohub,2013-05-01 10:27:00,
2013-05-01 06:32:00,52.3,50.4,30.10,West,281,0.0,1.0,93,0.00,,,0.00,0.0,meteohub,2013-05-01 10:32:00,
2013-05-01 06:37:00,52.3,50.4,30.10,West,281,0.0,1.0,93,0.00,,,0.00,0.0,meteohub,2013-05-01 10:37:00,
2013-05-01 06:42:00,52.3,50.4,30.10,West,281,0.0,1.0,93,0.00,,,0.00,0.0,meteohub,2013-05-01 10:42:00,
2013-05-01 06:47:00,52.3,50.4,30.10,West,281,0.0,2.0,93,0.00,,,0.00,0.0,meteohub,2013-05-01 10:47:00,
2013-05-01 06:52:00,52.3,50.4,30.10,West,281,1.0,2.0,93,0.00,,,0.00,5.0,meteohub,2013-05-01 10:52:00,
2013-05-01 06:57:00,52.2,50.2,30.10,West,281,1.0,3.0,93,0.00,,,0.00,9.0,meteohub,2013-05-01 10:57:00,
2013-05-01 07:02:00,52.2,50.2,30.10,WSW,254,0.0,3.0,93,0.00,,,0.00,16.0,meteohub,2013-05-01 11:02:00,
2013-05-01 07:07:00,52.0,50.0,30.10,WSW,255,1.0,2.0,93,0.00,,,0.00,19.0,meteohub,2013-05-01 11:07:00,
2013-05-01 07:12:00,52.0,50.0,30.11,WSW,255,1.0,4.0,93,0.00,,,0.00,30.0,meteohub,2013-05-01 11:12:00,
2013-05-01 07:17:00,52.0,50.0,30.11,WSW,244,2.0,4.0,93,0.00,,,0.00,33.0,meteohub,2013-05-01 11:17:00,
2013-05-01 07:22:00,52.0,50.0,30.11,WSW,244,1.0,3.0,93,0.00,,,0.00,26.0,meteohub,2013-05-01 11:22:00,
2013-05-01 07:27:00,51.8,49.8,30.12,WSW,244,0.0,3.0,93,0.00,,,0.00,23.0,meteohub,2013-05-01 11:27:00,
2013-05-01 07:32:00,51.8,49.8,30.12,WSW,244,1.0,3.0,93,0.00,,,0.00,28.0,meteohub,2013-05-01 11:32:00,
2013-05-01 07:37:00,51.8,49.8,30.12,WSW,244,1.0,3.0,93,0.00,,,0.00,37.0,meteohub,2013-05-01 11:37:00,
2013-05-01 07:42:00,51.8,49.8,30.12,WSW,244,0.0,3.0,93,0.00,,,0.00,60.0,meteohub,2013-05-01 11:42:00,
2013-05-01 07:47:00,52.0,50.0,30.12,WSW,244,1.0,3.0,93,0.00,,,0.00,67.0,meteohub,2013-05-01 11:47:00,
2013-05-01 07:52:00,52.0,50.0,30.12,WSW,244,1.0,3.0,93,0.00,,,0.00,44.0,meteohub,2013-05-01 11:52:00,
2013-05-01 07:57:00,52.2,50.2,30.12,SSW,201,0.0,3.0,93,0.00,,,0.00,67.0,meteohub,2013-05-01 11:57:00,
2013-05-01 08:02:00,52.3,50.7,30.12,SW,225,2.0,3.0,94,0.00,,,0.00,83.0,meteohub,2013-05-01 12:02:00,
2013-05-01 08:07:00,52.3,50.4,30.13,ESE,123,1.0,3.0,93,0.00,,,0.00,76.0,meteohub,2013-05-01 12:07:00,
2013-05-01 08:12:00,52.3,50.4,30.12,West,276,1.0,3.0,93,0.00,,,0.00,88.0,meteohub,2013-05-01 12:12:00,
2013-05-01 08:17:00,52.5,50.5,30.13,WSW,246,0.0,4.0,93,0.00,,,0.00,77.0,meteohub,2013-05-01 12:17:00,
2013-05-01 08:22:00,52.7,50.7,30.13,WSW,246,0.0,4.0,93,0.00,,,0.00,95.0,meteohub,2013-05-01 12:22:00,
2013-05-01 08:27:00,52.9,50.5,30.13,SSW,209,0.0,4.0,92,0.00,,,0.00,135.0,meteohub,2013-05-01 12:27:00,
2013-05-01 08:32:00,52.9,50.5,30.13,SSW,209,1.0,4.0,92,0.00,,,0.00,156.0,meteohub,2013-05-01 12:32:00,
2013-05-01 08:37:00,53.2,51.3,30.13,SSW,209,0.0,3.0,93,0.00,,,0.00,179.0,meteohub,2013-05-01 12:37:00,
2013-05-01 08:42:00,53.4,51.1,30.13,SW,229,3.0,3.0,92,0.00,,,0.00,181.0,meteohub,2013-05-01 12:42:00,
2013-05-01 08:47:00,53.8,51.3,30.13,SSE,161,0.0,4.0,91,0.00,,,0.00,172.0,meteohub,2013-05-01 12:47:00,
2013-05-01 08:52:00,54.1,51.3,30.13,SSE,159,2.0,4.0,90,0.00,,,0.00,135.0,meteohub,2013-05-01 12:52:00,
2013-05-01 08:57:00,54.3,51.1,30.14,SW,217,1.0,4.0,89,0.00,,,0.00,121.0,meteohub,2013-05-01 12:57:00,
2013-05-01 09:03:00,54.5,51.3,30.14,SSW,193,1.0,4.0,89,0.00,,,0.00,141.0,meteohub,2013-05-01 13:03:00,
2013-05-01 09:08:00,54.7,51.3,30.14,SSW,195,0.0,4.0,88,0.00,,,0.00,123.0,meteohub,2013-05-01 13:08:00,
2013-05-01 09:13:00,54.9,51.4,30.14,South,174,0.0,4.0,88,0.00,,,0.00,125.0,meteohub,2013-05-01 13:13:00,
2013-05-01 09:18:00,54.9,51.4,30.14,SSW,196,1.0,3.0,88,0.00,,,0.00,146.0,meteohub,2013-05-01 13:18:00,
2013-05-01 09:23:00,55.0,51.6,30.15,SSE,166,1.0,3.0,88,0.00,,,0.00,134.0,meteohub,2013-05-01 13:23:00,
2013-05-01 09:28:00,55.0,51.3,30.15,SSW,196,2.0,3.0,87,0.00,,,0.00,162.0,meteohub,2013-05-01 13:28:00,
2013-05-01 09:33:00,55.2,51.4,30.15,SSW,205,0.0,5.0,87,0.00,,,0.00,167.0,meteohub,2013-05-01 13:33:00,
2013-05-01 09:38:00,55.2,51.4,30.15,SSW,205,0.0,5.0,87,0.00,,,0.00,93.0,meteohub,2013-05-01 13:38:00,
2013-05-01 09:43:00,55.4,51.3,30.15,SW,215,4.0,5.0,86,0.00,,,0.00,153.0,meteohub,2013-05-01 13:43:00,
2013-05-01 09:48:00,55.6,51.4,30.16,SSE,156,2.0,5.0,86,0.00,,,0.00,148.0,meteohub,2013-05-01 13:48:00,
2013-05-01 09:53:00,55.6,51.4,30.16,SSW,213,3.0,5.0,86,0.00,,,0.00,118.0,meteohub,2013-05-01 13:53:00,
2013-05-01 09:59:00,55.6,51.1,30.16,SSW,198,1.0,5.0,85,0.00,,,0.00,146.0,meteohub,2013-05-01 13:59:00,
2013-05-01 10:04:00,55.6,50.9,30.17,SSW,202,0.0,4.0,84,0.00,,,0.00,165.0,meteohub,2013-05-01 14:04:00,
2013-05-01 10:09:00,55.6,51.1,30.17,WSW,249,0.0,5.0,85,0.00,,,0.00,148.0,meteohub,2013-05-01 14:09:00,
2013-05-01 10:14:00,55.6,50.5,30.17,SSW,204,0.0,5.0,83,0.00,,,0.00,141.0,meteohub,2013-05-01 14:14:00,
2013-05-01 10:19:00,55.6,50.5,30.18,South,190,0.0,5.0,83,0.00,,,0.00,148.0,meteohub,2013-05-01 14:19:00,
2013-05-01 10:24:00,55.6,50.5,30.17,South,182,0.0,4.0,83,0.00,,,0.00,169.0,meteohub,2013-05-01 14:24:00,
2013-05-01 10:29:00,55.8,51.1,30.17,SW,218,1.0,5.0,84,0.00,,,0.00,250.0,meteohub,2013-05-01 14:29:00,
2013-05-01 10:34:00,55.9,51.4,30.17,South,169,3.0,5.0,85,0.00,,,0.00,213.0,meteohub,2013-05-01 14:34:00,
2013-05-01 10:39:00,56.1,51.1,30.17,South,177,1.0,5.0,83,0.00,,,0.00,171.0,meteohub,2013-05-01 14:39:00,
2013-05-01 10:44:00,56.1,51.4,30.17,SE,130,2.0,4.0,84,0.00,,,0.00,174.0,meteohub,2013-05-01 14:44:00,
2013-05-01 10:49:00,56.3,50.9,30.16,SSE,157,0.0,4.0,82,0.00,,,0.00,211.0,meteohub,2013-05-01 14:49:00,
2013-05-01 10:54:00,56.1,50.7,30.17,SW,223,2.0,4.0,82,0.00,,,0.00,192.0,meteohub,2013-05-01 14:54:00,
2013-05-01 10:59:00,56.3,51.3,30.17,SW,233,0.0,4.0,83,0.00,,,0.00,188.0,meteohub,2013-05-01 14:59:00,
2013-05-01 11:04:00,56.5,51.4,30.17,SSE,165,4.0,4.0,83,0.00,,,0.00,221.0,meteohub,2013-05-01 15:04:00,
2013-05-01 11:10:00,56.5,51.4,30.17,SSW,202,2.0,5.0,83,0.00,,,0.00,146.0,meteohub,2013-05-01 15:10:00,
2013-05-01 11:15:00,56.5,51.1,30.17,SSE,151,3.0,5.0,82,0.00,,,0.00,134.0,meteohub,2013-05-01 15:15:00,
2013-05-01 11:20:00,56.1,51.1,30.18,WNW,286,3.0,5.0,83,0.00,,,0.00,269.0,meteohub,2013-05-01 15:20:00,
2013-05-01 11:25:00,56.1,51.1,30.18,SSE,155,1.0,5.0,83,0.00,,,0.00,204.0,meteohub,2013-05-01 15:25:00,
2013-05-01 11:30:00,56.1,51.1,30.18,SSW,211,2.0,5.0,83,0.00,,,0.00,241.0,meteohub,2013-05-01 15:30:00,
2013-05-01 11:35:00,56.3,51.3,30.18,South,180,0.0,5.0,83,0.00,,,0.00,308.0,meteohub,2013-05-01 15:35:00,
2013-05-01 11:40:00,56.8,52.7,30.18,SW,235,3.0,5.0,86,0.00,,,0.00,420.0,meteohub,2013-05-01 15:40:00,
2013-05-01 11:45:00,57.2,51.1,30.18,South,188,0.0,5.0,80,0.00,,,0.00,260.0,meteohub,2013-05-01 15:45:00,
2013-05-01 11:50:00,57.4,51.6,30.17,SW,235,2.0,7.0,81,0.00,,,0.00,258.0,meteohub,2013-05-01 15:50:00,
2013-05-01 11:55:00,57.7,52.0,30.17,SSW,198,2.0,7.0,81,0.00,,,0.00,272.0,meteohub,2013-05-01 15:55:00,
2013-05-01 12:01:00,57.6,51.1,30.17,SE,142,4.0,7.0,79,0.00,,,0.00,323.0,meteohub,2013-05-01 16:01:00,
2013-05-01 12:06:00,57.6,51.8,30.17,South,169,4.0,9.0,81,0.00,,,0.00,346.0,meteohub,2013-05-01 16:06:00,
2013-05-01 12:11:00,57.9,52.2,30.16,SSW,204,3.0,9.0,81,0.00,,,0.00,343.0,meteohub,2013-05-01 16:11:00,
2013-05-01 12:16:00,58.1,51.6,30.16,SE,136,1.0,7.0,79,0.00,,,0.00,360.0,meteohub,2013-05-01 16:16:00,
2013-05-01 12:21:00,58.5,52.0,30.16,South,175,2.0,7.0,79,0.00,,,0.00,255.0,meteohub,2013-05-01 16:21:00,
2013-05-01 12:26:00,58.5,51.6,30.16,SSE,164,2.0,7.0,78,0.00,,,0.00,292.0,meteohub,2013-05-01 16:26:00,
2013-05-01 12:31:00,58.3,51.1,30.16,WSW,242,3.0,6.0,77,0.00,,,0.00,294.0,meteohub,2013-05-01 16:31:00,
2013-05-01 12:36:00,58.5,51.6,30.16,SSE,162,2.0,6.0,78,0.00,,,0.00,320.0,meteohub,2013-05-01 16:36:00,
2013-05-01 12:41:00,58.6,51.4,30.16,SSW,197,2.0,8.0,77,0.00,,,0.00,373.0,meteohub,2013-05-01 16:41:00,
2013-05-01 12:46:00,58.8,51.6,30.15,SW,219,1.0,8.0,77,0.00,,,0.00,390.0,meteohub,2013-05-01 16:46:00,
2013-05-01 12:51:00,59.2,52.3,30.15,South,171,1.0,8.0,78,0.00,,,0.00,503.0,meteohub,2013-05-01 16:51:00,
2013-05-01 12:56:00,59.7,52.2,30.15,WSW,244,3.0,8.0,76,0.00,,,0.00,512.0,meteohub,2013-05-01 16:56:00,
2013-05-01 13:01:00,60.4,52.5,30.15,SSW,212,1.0,8.0,75,0.00,,,0.00,431.0,meteohub,2013-05-01 17:01:00,
2013-05-01 13:07:00,61.0,52.3,30.15,East,80,2.0,7.0,73,0.00,,,0.00,728.0,meteohub,2013-05-01 17:07:00,
2013-05-01 13:12:00,61.0,52.0,30.16,NE,48,3.0,6.0,72,0.00,,,0.00,257.0,meteohub,2013-05-01 17:12:00,
2013-05-01 13:17:00,61.0,52.0,30.16,SW,223,2.0,7.0,72,0.00,,,0.00,322.0,meteohub,2013-05-01 17:17:00,
2013-05-01 13:22:00,61.0,52.0,30.17,SW,234,3.0,7.0,72,0.00,,,0.00,570.0,meteohub,2013-05-01 17:22:00,
2013-05-01 13:27:00,61.3,52.7,30.17,WSW,258,3.0,7.0,73,0.00,,,0.00,564.0,meteohub,2013-05-01 17:27:00,
2013-05-01 13:32:00,61.9,53.1,30.17,SW,232,4.0,7.0,73,0.00,,,0.00,812.0,meteohub,2013-05-01 17:32:00,
2013-05-01 13:37:00,62.1,51.4,30.17,SSE,162,1.0,9.0,68,0.00,,,0.00,445.0,meteohub,2013-05-01 17:37:00,
2013-05-01 13:42:00,62.4,50.9,30.16,ENE,58,1.0,9.0,66,0.00,,,0.00,485.0,meteohub,2013-05-01 17:42:00,
2013-05-01 13:47:00,62.4,51.3,30.17,SSW,205,3.0,6.0,67,0.00,,,0.00,425.0,meteohub,2013-05-01 17:47:00,
2013-05-01 13:52:00,62.4,50.9,30.17,SW,235,3.0,6.0,66,0.00,,,0.00,376.0,meteohub,2013-05-01 17:52:00,
2013-05-01 13:57:00,62.2,52.0,30.17,ESE,117,4.0,7.0,69,0.00,,,0.00,445.0,meteohub,2013-05-01 17:57:00,
2013-05-01 14:02:00,61.9,50.7,30.17,SE,136,3.0,8.0,67,0.00,,,0.00,434.0,meteohub,2013-05-01 18:02:00,
2013-05-01 14:07:00,62.2,52.0,30.17,West,263,2.0,8.0,69,0.00,,,0.00,410.0,meteohub,2013-05-01 18:07:00,
2013-05-01 14:12:00,62.6,51.4,30.17,SW,225,3.0,8.0,67,0.00,,,0.00,737.0,meteohub,2013-05-01 18:12:00,
2013-05-01 14:17:00,63.1,52.9,30.17,South,178,3.0,7.0,69,0.00,,,0.00,677.0,meteohub,2013-05-01 18:17:00,
2013-05-01 14:22:00,63.1,52.0,30.17,SSW,196,2.0,7.0,67,0.00,,,0.00,633.0,meteohub,2013-05-01 18:22:00,
2013-05-01 14:27:00,63.7,54.1,30.17,SSW,209,1.0,10.0,71,0.00,,,0.00,496.0,meteohub,2013-05-01 18:27:00,
2013-05-01 14:32:00,64.2,51.8,30.17,ESE,113,3.0,10.0,64,0.00,,,0.00,670.0,meteohub,2013-05-01 18:32:00,
2013-05-01 14:37:00,63.9,52.3,30.17,SSE,166,0.0,9.0,66,0.00,,,0.00,385.0,meteohub,2013-05-01 18:37:00,
2013-05-01 14:42:00,63.7,52.2,30.17,SSE,163,0.0,10.0,66,0.00,,,0.00,410.0,meteohub,2013-05-01 18:42:00,
2013-05-01 14:47:00,64.0,52.9,30.16,SSW,209,7.0,10.0,67,0.00,,,0.00,457.0,meteohub,2013-05-01 18:47:00,
2013-05-01 14:52:00,64.0,51.6,30.17,East,82,2.0,8.0,64,0.00,,,0.00,267.0,meteohub,2013-05-01 18:52:00,
2013-05-01 14:57:00,63.5,52.3,30.16,SSW,212,3.0,8.0,67,0.00,,,0.00,459.0,meteohub,2013-05-01 18:57:00,
2013-05-01 15:02:00,63.9,53.1,30.16,SW,221,2.0,8.0,68,0.00,,,0.00,418.0,meteohub,2013-05-01 19:02:00,
2013-05-01 15:07:00,64.0,52.9,30.16,WSW,242,5.0,7.0,67,0.00,,,0.00,373.0,meteohub,2013-05-01 19:07:00,
2013-05-01 15:12:00,64.2,53.1,30.15,WSW,238,2.0,7.0,67,0.00,,,0.00,608.0,meteohub,2013-05-01 19:12:00,
2013-05-01 15:17:00,64.8,51.8,30.15,East,97,0.0,7.0,63,0.00,,,0.00,206.0,meteohub,2013-05-01 19:17:00,
2013-05-01 15:22:00,64.8,51.4,30.16,South,184,2.0,7.0,62,0.00,,,0.00,304.0,meteohub,2013-05-01 19:22:00,
2013-05-01 15:27:00,64.8,51.8,30.16,SW,221,1.0,6.0,63,0.00,,,0.00,353.0,meteohub,2013-05-01 19:27:00,
2013-05-01 15:32:00,64.6,52.9,30.16,SW,217,1.0,5.0,66,0.00,,,0.00,278.0,meteohub,2013-05-01 19:32:00,
2013-05-01 15:37:00,64.2,52.2,30.15,SW,215,5.0,5.0,65,0.00,,,0.00,373.0,meteohub,2013-05-01 19:37:00,
2013-05-01 15:42:00,64.0,52.5,30.15,SSW,212,4.0,6.0,66,0.00,,,0.00,330.0,meteohub,2013-05-01 19:42:00,
2013-05-01 15:47:00,63.9,51.1,30.16,SSW,196,1.0,6.0,63,0.00,,,0.00,299.0,meteohub,2013-05-01 19:47:00,
2013-05-01 15:52:00,63.7,51.6,30.16,SW,230,3.0,6.0,65,0.00,,,0.00,380.0,meteohub,2013-05-01 19:52:00,
2013-05-01 15:57:00,63.3,51.8,30.16,SSE,167,2.0,8.0,66,0.00,,,0.00,464.0,meteohub,2013-05-01 19:57:00,
2013-05-01 16:02:00,63.5,52.7,30.15,SW,217,2.0,8.0,68,0.00,,,0.00,443.0,meteohub,2013-05-01 20:02:00,
2013-05-01 16:07:00,63.9,51.8,30.15,SE,140,2.0,8.0,65,0.00,,,0.00,276.0,meteohub,2013-05-01 20:07:00,
2013-05-01 16:12:00,64.0,52.5,30.15,WSW,245,4.0,6.0,66,0.00,,,0.00,526.0,meteohub,2013-05-01 20:12:00,
2013-05-01 16:17:00,64.2,52.2,30.14,West,263,4.0,6.0,65,0.00,,,0.00,589.0,meteohub,2013-05-01 20:17:00,
2013-05-01 16:22:00,64.6,52.2,30.15,SW,223,2.0,6.0,64,0.00,,,0.00,255.0,meteohub,2013-05-01 20:22:00,
2013-05-01 16:27:00,64.8,53.1,30.14,SSW,211,2.0,6.0,66,0.00,,,0.00,452.0,meteohub,2013-05-01 20:27:00,
2013-05-01 16:32:00,64.6,51.3,30.15,East,96,1.0,5.0,62,0.00,,,0.00,281.0,meteohub,2013-05-01 20:32:00,
2013-05-01 16:37:00,64.2,52.7,30.15,WSW,257,2.0,7.0,66,0.00,,,0.00,469.0,meteohub,2013-05-01 20:37:00,
2013-05-01 16:42:00,64.2,52.7,30.14,SSW,203,3.0,7.0,66,0.00,,,0.00,190.0,meteohub,2013-05-01 20:42:00,
2013-05-01 16:47:00,63.9,51.1,30.15,SSW,213,0.0,8.0,63,0.00,,,0.00,162.0,meteohub,2013-05-01 20:47:00,
2013-05-01 16:52:00,63.7,52.2,30.15,ESE,113,1.0,8.0,66,0.00,,,0.00,176.0,meteohub,2013-05-01 20:52:00,
2013-05-01 16:57:00,63.1,51.6,30.15,SW,230,0.0,8.0,66,0.00,,,0.00,221.0,meteohub,2013-05-01 20:57:00,
2013-05-01 17:02:00,63.0,51.8,30.15,SW,217,3.0,5.0,67,0.00,,,0.00,155.0,meteohub,2013-05-01 21:02:00,
2013-05-01 17:07:00,62.8,52.0,30.14,SSW,195,1.0,5.0,68,0.00,,,0.00,144.0,meteohub,2013-05-01 21:07:00,
2013-05-01 17:12:00,62.6,52.0,30.15,SSW,194,0.0,4.0,68,0.00,,,0.00,193.0,meteohub,2013-05-01 21:12:00,
2013-05-01 17:17:00,62.2,50.7,30.15,South,182,2.0,4.0,66,0.00,,,0.00,197.0,meteohub,2013-05-01 21:17:00,
2013-05-01 17:22:00,62.1,51.8,30.15,SW,219,2.0,4.0,69,0.00,,,0.00,149.0,meteohub,2013-05-01 21:22:00,
2013-05-01 17:27:00,62.1,51.8,30.15,SW,226,1.0,4.0,69,0.00,,,0.00,144.0,meteohub,2013-05-01 21:27:00,
2013-05-01 17:32:00,61.9,52.0,30.15,SSW,213,0.0,4.0,70,0.00,,,0.00,93.0,meteohub,2013-05-01 21:32:00,
2013-05-01 17:37:00,61.5,52.3,30.15,SSW,194,2.0,4.0,72,0.00,,,0.00,100.0,meteohub,2013-05-01 21:37:00,
2013-05-01 17:42:00,61.3,52.2,30.15,SW,227,0.0,4.0,72,0.00,,,0.00,104.0,meteohub,2013-05-01 21:42:00,
2013-05-01 17:47:00,61.2,51.6,30.15,SW,236,0.0,4.0,71,0.00,,,0.00,169.0,meteohub,2013-05-01 21:47:00,
2013-05-01 17:52:00,61.2,51.3,30.15,SSE,148,1.0,4.0,70,0.00,,,0.00,171.0,meteohub,2013-05-01 21:52:00,
2013-05-01 17:57:00,61.0,52.3,30.15,SSE,163,4.0,7.0,73,0.00,,,0.00,162.0,meteohub,2013-05-01 21:57:00,
2013-05-01 18:02:00,61.0,52.3,30.15,South,178,5.0,7.0,73,0.00,,,0.00,163.0,meteohub,2013-05-01 22:02:00,
2013-05-01 18:07:00,60.6,51.6,30.14,South,183,0.0,7.0,72,0.00,,,0.00,123.0,meteohub,2013-05-01 22:07:00,
2013-05-01 18:12:00,60.4,51.8,30.14,South,169,1.0,7.0,73,0.00,,,0.00,149.0,meteohub,2013-05-01 22:12:00,
2013-05-01 18:17:00,60.3,51.6,30.14,South,170,3.0,7.0,73,0.00,,,0.00,118.0,meteohub,2013-05-01 22:17:00,
2013-05-01 18:22:00,60.3,52.7,30.14,SSW,202,0.0,5.0,76,0.00,,,0.00,137.0,meteohub,2013-05-01 22:22:00,
2013-05-01 18:27:00,60.1,51.8,30.14,SE,136,0.0,5.0,74,0.00,,,0.00,130.0,meteohub,2013-05-01 22:27:00,
2013-05-01 18:32:00,59.9,52.0,30.14,South,190,1.0,5.0,75,0.00,,,0.00,111.0,meteohub,2013-05-01 22:32:00,
2013-05-01 18:37:00,59.7,51.4,30.14,SSE,150,3.0,5.0,74,0.00,,,0.00,102.0,meteohub,2013-05-01 22:37:00,
2013-05-01 18:42:00,59.5,51.6,30.14,SSE,157,2.0,5.0,75,0.00,,,0.00,91.0,meteohub,2013-05-01 22:42:00,
2013-05-01 18:47:00,59.4,51.4,30.14,SSW,198,1.0,4.0,75,0.00,,,0.00,83.0,meteohub,2013-05-01 22:47:00,
2013-05-01 18:52:00,59.2,51.3,30.14,SSW,194,2.0,5.0,75,0.00,,,0.00,63.0,meteohub,2013-05-01 22:52:00,
2013-05-01 18:57:00,58.8,51.6,30.14,SSW,213,0.0,5.0,77,0.00,,,0.00,70.0,meteohub,2013-05-01 22:57:00,
2013-05-01 19:02:00,58.6,51.4,30.14,SSW,195,0.0,5.0,77,0.00,,,0.00,72.0,meteohub,2013-05-01 23:02:00,
2013-05-01 19:07:00,58.6,51.1,30.14,South,186,0.0,3.0,76,0.00,,,0.00,62.0,meteohub,2013-05-01 23:07:00,
2013-05-01 19:12:00,58.5,51.3,30.14,South,190,0.0,4.0,77,0.00,,,0.00,46.0,meteohub,2013-05-01 23:12:00,
2013-05-01 19:18:00,58.3,51.1,30.14,SSE,161,0.0,4.0,77,0.00,,,0.00,37.0,meteohub,2013-05-01 23:18:00,
2013-05-01 19:23:00,58.1,51.3,30.14,SSE,162,1.0,4.0,78,0.00,,,0.00,35.0,meteohub,2013-05-01 23:23:00,
2013-05-01 19:28:00,57.9,51.1,30.14,SW,227,1.0,3.0,78,0.00,,,0.00,26.0,meteohub,2013-05-01 23:28:00,
2013-05-01 19:33:00,57.7,50.9,30.14,SW,227,0.0,3.0,78,0.00,,,0.00,23.0,meteohub,2013-05-01 23:33:00,
2013-05-01 19:38:00,57.6,50.7,30.14,South,169,0.0,3.0,78,0.00,,,0.00,16.0,meteohub,2013-05-01 23:38:00,
2013-05-01 19:43:00,57.4,50.9,30.14,SSW,207,0.0,5.0,79,0.00,,,0.00,12.0,meteohub,2013-05-01 23:43:00,
2013-05-01 19:48:00,57.4,50.9,30.14,SSW,207,0.0,5.0,79,0.00,,,0.00,11.0,meteohub,2013-05-01 23:48:00,
2013-05-01 19:53:00,57.0,50.9,30.14,SSW,207,0.0,5.0,80,0.00,,,0.00,5.0,meteohub,2013-05-01 23:53:00,
2013-05-01 19:58:00,56.8,50.7,30.14,SW,236,0.0,3.0,80,0.00,,,0.00,7.0,meteohub,2013-05-01 23:58:00,
2013-05-01 20:03:00,56.8,51.1,30.14,SSW,202,0.0,3.0,81,0.00,,,0.00,5.0,meteohub,2013-05-02 00:03:00,
2013-05-01 20:08:00,56.7,50.9,30.14,SSW,195,1.0,3.0,81,0.00,,,0.00,0.0,meteohub,2013-05-02 00:08:00,
2013-05-01 20:13:00,56.5,51.1,30.15,SSW,196,0.0,3.0,82,0.00,,,0.00,0.0,meteohub,2013-05-02 00:13:00,
2013-05-01 20:19:00,56.3,51.3,30.15,SW,223,0.0,2.0,83,0.00,,,0.00,0.0,meteohub,2013-05-02 00:19:00,
2013-05-01 20:24:00,56.1,51.1,30.15,SW,223,0.0,2.0,83,0.00,,,0.00,0.0,meteohub,2013-05-02 00:24:00,
2013-05-01 20:29:00,55.9,50.9,30.15,SSW,213,1.0,4.0,83,0.00,,,0.00,0.0,meteohub,2013-05-02 00:29:00,
2013-05-01 20:34:00,55.9,51.3,30.16,SSW,213,0.0,4.0,84,0.00,,,0.00,0.0,meteohub,2013-05-02 00:34:00,
2013-05-01 20:39:00,55.8,51.1,30.16,ESE,120,1.0,4.0,84,0.00,,,0.00,0.0,meteohub,2013-05-02 00:39:00,
2013-05-01 20:44:00,55.6,51.1,30.16,ESE,121,0.0,5.0,85,0.00,,,0.00,0.0,meteohub,2013-05-02 00:44:00,
2013-05-01 20:49:00,55.4,50.9,30.16,SSE,165,0.0,5.0,85,0.00,,,0.00,0.0,meteohub,2013-05-02 00:49:00,
2013-05-01 20:54:00,55.2,50.7,30.17,South,184,1.0,5.0,85,0.00,,,0.00,0.0,meteohub,2013-05-02 00:54:00,
2013-05-01 20:59:00,55.0,50.9,30.16,SE,136,0.0,4.0,86,0.00,,,0.00,0.0,meteohub,2013-05-02 00:59:00,
2013-05-01 21:04:00,55.0,50.9,30.17,South,173,2.0,6.0,86,0.00,,,0.00,0.0,meteohub,2013-05-02 01:04:00,
2013-05-01 21:10:00,55.0,50.9,30.17,South,175,0.0,6.0,86,0.00,,,0.00,0.0,meteohub,2013-05-02 01:10:00,
2013-05-01 21:15:00,54.9,51.1,30.17,SW,229,1.0,3.0,87,0.00,,,0.00,0.0,meteohub,2013-05-02 01:15:00,
2013-05-01 21:20:00,54.9,51.1,30.17,SW,214,0.0,4.0,87,0.00,,,0.00,0.0,meteohub,2013-05-02 01:20:00,
2013-05-01 21:25:00,54.9,51.1,30.17,SW,217,0.0,4.0,87,0.00,,,0.00,0.0,meteohub,2013-05-02 01:25:00,
2013-05-01 21:30:00,54.7,50.9,30.18,SW,223,0.0,4.0,87,0.00,,,0.00,0.0,meteohub,2013-05-02 01:30:00,
2013-05-01 21:35:00,54.7,51.3,30.18,West,262,4.0,4.0,88,0.00,,,0.00,0.0,meteohub,2013-05-02 01:35:00,
2013-05-01 21:40:00,54.7,51.3,30.19,South,169,2.0,6.0,88,0.00,,,0.00,0.0,meteohub,2013-05-02 01:40:00,
2013-05-01 21:46:00,54.5,51.1,30.19,SW,231,1.0,6.0,88,0.00,,,0.00,0.0,meteohub,2013-05-02 01:46:00,
2013-05-01 21:51:00,54.3,50.9,30.19,SSE,168,1.0,6.0,88,0.00,,,0.00,0.0,meteohub,2013-05-02 01:51:00,
2013-05-01 21:56:00,54.3,50.9,30.19,West,267,0.0,6.0,88,0.00,,,0.00,0.0,meteohub,2013-05-02 01:56:00,
2013-05-01 22:01:00,54.3,50.9,30.19,South,175,0.0,5.0,88,0.00,,,0.00,0.0,meteohub,2013-05-02 02:01:00,
2013-05-01 22:06:00,54.1,50.7,30.19,SSE,161,2.0,5.0,88,0.00,,,0.00,0.0,meteohub,2013-05-02 02:06:00,
2013-05-01 22:11:00,54.1,50.7,30.19,South,179,1.0,5.0,88,0.00,,,0.00,0.0,meteohub,2013-05-02 02:11:00,
2013-05-01 22:16:00,54.1,50.7,30.19,South,179,1.0,5.0,88,0.00,,,0.00,0.0,meteohub,2013-05-02 02:16:00,
2013-05-01 22:21:00,54.1,50.7,30.19,SSW,211,0.0,4.0,88,0.00,,,0.00,0.0,meteohub,2013-05-02 02:21:00,
2013-05-01 22:26:00,54.1,50.7,30.20,SSW,211,2.0,4.0,88,0.00,,,0.00,0.0,meteohub,2013-05-02 02:26:00,
2013-05-01 22:31:00,54.1,50.9,30.19,SW,225,2.0,4.0,89,0.00,,,0.00,0.0,meteohub,2013-05-02 02:31:00,
2013-05-01 22:36:00,54.0,50.7,30.19,SW,226,1.0,5.0,89,0.00,,,0.00,0.0,meteohub,2013-05-02 02:36:00,
2013-05-01 22:41:00,54.0,50.7,30.19,SW,225,0.0,5.0,89,0.00,,,0.00,0.0,meteohub,2013-05-02 02:41:00,
2013-05-01 22:47:00,54.0,50.7,30.19,SW,225,0.0,5.0,89,0.00,,,0.00,0.0,meteohub,2013-05-02 02:47:00,
2013-05-01 22:52:00,54.0,50.7,30.19,SW,225,0.0,3.0,89,0.00,,,0.00,0.0,meteohub,2013-05-02 02:52:00,
2013-05-01 22:57:00,53.8,50.5,30.19,South,189,1.0,3.0,89,0.00,,,0.00,0.0,meteohub,2013-05-02 02:57:00,
2013-05-01 23:02:00,53.8,50.9,30.19,SW,223,2.0,4.0,90,0.00,,,0.00,0.0,meteohub,2013-05-02 03:02:00,
2013-05-01 23:07:00,53.8,50.9,30.19,WSW,242,3.0,4.0,90,0.00,,,0.00,0.0,meteohub,2013-05-02 03:07:00,
2013-05-01 23:12:00,53.8,50.9,30.19,SSW,193,0.0,4.0,90,0.00,,,0.00,0.0,meteohub,2013-05-02 03:12:00,
2013-05-01 23:17:00,53.6,50.7,30.19,SSE,164,2.0,5.0,90,0.00,,,0.00,0.0,meteohub,2013-05-02 03:17:00,
2013-05-01 23:22:00,53.6,50.7,30.19,SW,223,1.0,5.0,90,0.00,,,0.00,0.0,meteohub,2013-05-02 03:22:00,
2013-05-01 23:27:00,53.6,50.7,30.19,South,178,3.0,5.0,90,0.00,,,0.00,0.0,meteohub,2013-05-02 03:27:00,
2013-05-01 23:32:00,53.4,50.5,30.19,SSE,159,3.0,4.0,90,0.00,,,0.00,0.0,meteohub,2013-05-02 03:32:00,
2013-05-01 23:37:00,53.4,50.9,30.19,SSE,168,3.0,4.0,91,0.00,,,0.00,0.0,meteohub,2013-05-02 03:37:00,
2013-05-01 23:42:00,53.4,50.9,30.19,SW,219,1.0,6.0,91,0.00,,,0.00,0.0,meteohub,2013-05-02 03:42:00,
2013-05-01 23:47:00,53.4,50.9,30.19,WSW,239,1.0,6.0,91,0.00,,,0.00,0.0,meteohub,2013-05-02 03:47:00,
2013-05-01 23:52:00,53.2,50.9,30.19,SE,142,1.0,6.0,92,0.00,,,0.00,0.0,meteohub,2013-05-02 03:52:00,
2013-05-01 23:57:00,53.2,50.9,30.19,SW,226,0.0,6.0,92,0.00,,,0.00,0.0,meteohub,2013-05-02 03:57:00,